CONNECTA IOT-4

Last updated on Mon Sep 16 2024 00:02:03 GMT+0000 (Coordinated Universal Time)

1 60524U 24149BJ 24258.88169060 .00011389 00000+0 54084-3 0 9991 2 60524 97.4401 334.0264 0009162 54.5182 305.6906 15.19362739 4413
UTC large
Height (km)
Speed (km/s)
/
Latitude / Longitude
Inclination (degrees)
Orbital Period (minutes)
Azimuth
Elevation
Range (km)
Doppler Factor

Next 0 passes for location: London (51.5072 / 0.1276)

Sorry there are no passes over London.